Location: Caracas
(10.5033°N, 66.8422°W)
Time: 08:40:30
(UTC-04:00)

Tiangong 2 - Visible Passes

Search period start: 22 November 2017 00:00
Search period end: 02 December 2017 00:00
Orbit: 386 x 392 km, 42.8° (Epoch: 21 November)

Date Brightness Start Highest point End Pass type
(mag) Time Alt. Az. Time Alt. Az. Time Alt. Az.
23 Nov 1.8 05:21:29 10° SW 05:24:36 55° SE 05:27:42 10° ENE visible
24 Nov 4.2 04:27:47 16° ESE 04:27:47 16° ESE 04:28:56 10° E visible
24 Nov 2.7 06:00:59 10° W 06:03:12 18° NW 06:05:26 10° N visible
25 Nov 2.8 05:06:36 22° NNE 05:06:36 22° NNE 05:08:02 10° NNE visible
